Theta_e
310 309 309 309 309 311 310 311 311 312 312 314 313 312 312 313 311 311 312 313 313 314 314 321 326 327 326 324 322 330 334 343 350 350 349 348 350 349 347 344 343 343 343 343
310 310 311 311 312 312 313 312 312 311 313 313 312 312 311 313 312 312 313 312 311 313 313 321 325 327 326 323 321 324 335 344 342 348 350 348 346 347 348 347 346 347 350 346
310 311 313 313 313 313 313 313 312 312 314 312 312 312 311 314 314 313 313 313 313 312 312 320 323 325 327 325 322 321 324 332 337 343 344 347 345 344 345 345 346 344 343 345
310 311 313 313 313 313 311 311 313 314 313 312 314 313 312 313 313 312 312 311 311 312 312 316 320 321 325 322 322 322 321 321 321 323 333 344 345 341 342 342 342 342 343 342
313 313 312 312 314 317 315 314 313 314 312 311 312 311 311 311 312 311 311 311 311 311 313 312 316 323 324 324 323 321 321 321 320 319 324 330 334 338 340 342 340 343 342 340
312 313 314 315 318 318 317 315 311 310 309 312 312 311 313 311 311 311 312 314 312 311 311 312 318 322 323 323 322 321 320 320 319 320 321 323 326 328 332 334 337 339 340 339
318 317 317 318 319 317 319 319 318 313 311 314 312 316 313 315 316 317 316 313 312 313 314 314 316 314 316 321 323 322 321 320 320 321 322 322 322 324 325 325 327 331 333 337
322 319 319 319 321 321 320 319 318 321 317 315 318 319 316 316 317 316 316 311 312 314 315 314 313 312 313 316 318 319 320 320 321 321 321 321 322 322 322 323 324 325 327 330
321 321 317 318 318 319 321 320 318 321 321 323 318 316 315 317 317 317 317 315 312 313 313 313 311 311 315 316 317 318 319 320 320 321 322 322 322 322 323 323 323 324 324 324
317 318 317 317 317 318 320 319 317 323 325 325 319 318 317 320 319 318 317 315 314 313 312 312 311 311 315 316 318 319 319 319 318 318 319 322 320 320 323 322 321 324 322 325
315 316 316 313 318 318 318 319 318 319 322 325 321 314 316 319 318 319 318 317 314 314 314 313 310 311 314 316 317 317 316 316 317 317 316 316 316 318 320 319 319 319 319 323
314 313 314 313 310 315 317 318 318 319 320 321 320 317 315 315 315 316 316 317 315 314 313 313 314 314 314 311 315 316 316 316 317 317 316 316 317 319 320 321 321 322 319 320
313 310 310 310 312 313 315 316 316 315 316 319 321 317 314 316 316 316 315 316 316 316 315 315 313 313 313 314 314 314 317 317 317 318 317 317 315 315 315 315 315 316 320 323
311 307 309 312 311 310 314 316 316 316 316 320 319 317 316 315 316 315 315 315 315 315 316 316 316 314 315 315 314 315 314 314 315 314 314 314 314 314 314 314 314 314 315 314
309 312 312 313 314 314 314 314 315 317 316 316 315 316 315 315 315 314 314 315 317 317 316 317 316 314 313 314 315 314 314 314 314 314 314 313 313 313 313 313 312 312 311 311
308 311 314 314 312 313 313 314 316 318 318 319 317 315 315 313 314 315 313 314 315 315 315 316 315 315 313 312 314 314 314 313 314 313 313 313 313 312 312 311 311 311 311 310
308 308 309 312 314 313 313 318 318 317 318 317 316 317 315 313 313 311 313 311 311 313 311 309 309 309 309 310 311 312 313 314 313 313 312 312 312 312 311 311 311 311 312 313
308 309 308 310 309 315 318 315 315 318 317 315 314 313 313 312 310 310 309 309 308 308 308 307 307 307 308 309 309 310 312 314 313 311 311 311 312 312 312 312 312 312 312 313
307 308 309 308 308 312 318 317 316 316 316 313 313 312 311 310 310 309 307 307 307 308 307 307 307 307 307 306 307 308 310 310 310 311 311 312 312 311 311 311 311 312 312 313
312 311 313 312 314 307 317 314 313 312 314 311 310 310 310 310 311 310 308 308 308 308 306 306 306 306 306 306 306 306 307 308 310 311 310 311 311 311 310 310 310 311 311 312
313 310 309 313 309 310 314 313 310 310 309 309 309 309 310 312 310 308 308 309 308 307 305 305 305 305 305 305 305 306 307 308 308 309 310 310 310 310 310 310 310 310 311 311
317 313 309 315 316 312 312 309 310 309 307 308 308 309 310 309 309 310 307 306 305 305 305 304 304 305 305 305 305 305 306 306 307 309 310 310 310 310 310 311 311 311 311 312
312 313 309 312 309 309 309 308 308 306 307 308 308 309 309 310 309 307 305 305 304 304 304 303 302 303 304 305 305 305 306 306 307 309 309 309 309 310 311 311 311 311 312 312
313 310 306 308 309 307 306 306 305 305 306 307 308 309 309 310 307 305 303 303 303 302 302 301 300 300 302 302 303 304 305 305 306 308 308 308 310 310 310 312 313 313 313 315
309 308 307 306 307 305 306 305 305 306 306 308 308 308 309 306 305 303 303 301 300 300 299 298 298 299 299 299 301 302 303 304 306 307 308 308 309 311 311 312 312 313 314 315
307 305 300 302 304 304 305 306 305 306 306 307 309 309 305 304 304 301 299 299 299 298 298 298 298 298 297 297 298 300 302 304 305 306 308 308 309 310 311 312 313 314 315 316
Wind_Speed
5 2 6 13 10 13 8 12 15 16 15 4 6 10 10 16 10 9 6 8 9 10 9 12 20 24 23 19 18 17 17 17 22 18 20 23 26 26 27 32 35 34 35 34
4 7 14 12 12 12 14 15 17 10 7 5 7 11 8 9 7 8 8 8 8 4 6 7 21 23 21 20 17 16 16 13 13 15 17 14 16 24 27 24 21 21 28 24
9 13 10 11 13 13 15 14 6 7 3 5 4 7 7 5 5 5 7 6 6 10 9 8 12 24 24 22 18 16 14 11 8 7 13 15 10 15 18 25 32 29 23 19
8 9 9 12 11 8 6 8 7 4 3 4 3 6 6 5 8 7 9 5 9 9 8 11 14 12 28 27 21 17 13 10 8 6 7 11 15 9 13 14 24 31 32 30
12 6 7 11 5 7 4 10 6 4 2 1 4 1 9 4 10 9 11 9 10 11 15 14 11 18 23 21 20 16 12 8 5 6 5 9 9 10 16 23 19 19 22 24
9 2 1 2 10 2 5 4 6 5 2 2 7 5 9 7 5 5 8 16 17 11 10 12 16 24 22 22 22 18 12 6 4 7 8 9 10 10 10 9 11 21 24 28
8 7 7 4 6 2 6 3 3 4 4 11 5 4 17 2 7 4 18 22 11 9 11 17 18 14 22 26 26 23 19 13 10 10 10 9 10 10 12 12 12 12 14 18
3 5 6 4 3 3 4 6 5 7 3 12 5 6 6 5 6 6 15 21 10 11 13 17 17 15 23 28 27 21 19 17 14 15 14 12 11 12 13 13 13 12 12 13
4 6 3 7 3 2 1 4 2 3 4 4 5 7 8 6 2 11 13 19 6 8 9 12 9 13 20 22 21 22 22 20 22 19 21 20 15 15 16 14 13 12 11 13
3 4 6 1 2 4 6 6 4 1 4 5 4 6 5 3 4 11 13 13 14 17 11 4 5 11 24 28 30 30 32 29 25 20 17 18 18 17 16 16 15 13 14 15
3 2 5 3 4 3 1 4 2 2 2 2 3 5 3 5 4 3 9 13 6 8 8 9 9 16 14 29 33 36 34 30 26 23 21 20 20 18 19 18 18 17 17 18
1 4 3 8 12 5 3 4 3 3 3 4 2 5 6 4 6 7 7 7 5 4 4 4 6 8 11 11 26 33 31 31 31 29 26 24 23 21 19 19 21 24 22 22
5 0 3 9 4 3 1 4 4 3 2 5 2 4 2 7 9 4 6 9 10 12 10 5 4 2 5 10 12 13 34 33 33 28 22 19 16 14 13 12 13 12 17 25
7 3 6 5 7 4 5 4 7 7 3 4 5 8 10 6 8 9 8 2 7 14 15 3 6 7 4 3 5 9 9 15 21 21 19 18 15 13 12 13 15 16 19 22
5 4 4 6 10 12 13 13 12 10 10 4 3 3 2 3 6 7 7 6 3 5 5 5 6 7 7 8 12 12 10 12 11 12 12 13 12 13 15 16 19 21 25 27
3 4 2 4 13 8 13 8 8 1 2 3 5 4 2 5 6 6 7 7 8 7 9 8 8 6 7 13 16 21 25 24 23 25 25 24 22 22 23 23 26 29 32 35
2 2 3 5 7 12 3 9 5 5 2 3 2 1 5 7 8 7 7 8 11 10 6 7 6 8 10 15 21 22 27 32 33 33 30 27 24 24 24 26 27 28 29 28
3 2 2 4 6 1 5 0 4 11 5 6 6 8 8 8 9 13 10 12 8 7 8 8 7 11 18 20 23 28 28 24 29 31 30 28 27 26 26 27 30 32 33 31
7 4 1 1 1 6 9 3 6 6 4 5 7 11 13 13 16 16 8 5 11 17 17 17 24 24 27 30 32 28 27 27 28 30 31 32 28 28 29 29 29 31 33 33
2 3 4 1 2 4 2 8 9 7 5 8 10 13 13 15 16 15 11 16 20 19 18 24 35 34 33 35 35 38 39 35 29 28 27 28 29 29 27 30 31 30 30 34
3 1 4 2 3 6 5 9 7 5 6 14 12 13 16 16 14 25 22 21 17 23 30 37 38 36 40 37 33 33 31 28 32 33 33 33 31 29 31 32 32 30 30 30
3 0 2 2 3 6 5 4 1 3 6 11 14 18 19 20 24 22 21 24 29 28 29 34 29 33 38 35 31 30 30 33 31 30 28 26 26 29 30 29 28 29 28 27
1 4 3 5 5 3 2 6 1 3 10 13 17 19 20 24 25 20 25 31 29 29 24 33 28 31 35 34 32 28 33 32 29 27 25 25 27 29 28 26 23 23 27 24
4 3 2 4 1 6 11 3 7 12 14 17 19 22 24 22 18 28 30 28 24 25 24 30 27 23 23 32 34 35 34 29 26 26 26 26 25 24 24 22 21 20 20 20
3 3 1 5 4 12 1 9 13 19 20 20 21 21 18 20 24 30 27 27 25 24 23 28 20 21 23 31 31 34 32 29 26 24 24 23 22 20 20 23 22 22 25 28
1 2 2 4 1 4 13 15 18 19 22 22 22 20 19 23 28 29 25 24 23 23 25 22 22 21 29 30 29 28 28 29 26 22 19 17 17 19 21 21 19 27 28 26
Wind_Direction
291 101 234 236 225 236 240 258 264 270 276 249 251 278 282 303 215 226 212 192 175 172 196 159 162 163 160 163 152 154 180 189 205 208 207 205 198 194 200 216 224 220 215 223
345 259 255 249 257 248 248 253 262 272 248 266 281 286 289 288 246 182 189 220 244 219 176 158 158 162 162 163 160 145 157 176 200 220 224 235 247 220 206 196 199 214 222 208
213 242 266 261 264 266 269 244 234 239 307 313 316 291 301 302 282 209 217 209 204 207 205 175 166 172 167 164 165 156 151 166 174 206 232 240 243 237 225 218 213 213 213 208
241 250 258 289 294 289 279 251 254 263 69 246 90 283 301 293 286 303 303 271 232 233 211 193 180 180 175 175 169 164 162 172 192 226 233 227 234 252 241 283 241 223 217 227
236 254 273 285 308 9 289 296 241 194 203 56 239 164 278 308 289 289 293 267 268 234 220 184 180 174 175 164 157 155 157 169 200 240 251 245 242 257 276 269 267 251 227 213
231 348 120 200 309 146 317 17 14 351 87 283 265 166 282 250 235 292 284 291 278 235 205 152 146 155 165 166 164 161 164 189 228 249 261 266 268 265 265 270 262 266 261 246
0 319 304 331 288 215 65 51 2 317 311 250 175 190 238 342 288 286 332 301 237 176 150 143 149 158 160 172 173 172 175 183 202 222 233 241 253 260 260 256 255 265 278 284
89 324 359 21 12 353 300 170 180 235 226 272 313 240 249 217 292 326 352 308 165 149 148 147 155 162 166 172 178 177 182 192 198 212 227 227 231 246 250 254 256 253 255 261
200 225 250 244 105 240 70 231 219 129 218 256 249 290 315 254 343 12 4 19 37 135 156 161 162 158 165 170 179 189 192 204 206 211 224 227 233 249 256 260 270 271 270 274
191 287 239 343 159 243 195 303 76 165 233 236 257 243 247 341 345 10 347 360 39 19 2 352 173 180 184 180 185 188 187 193 203 208 218 221 241 250 253 261 273 280 288 288
128 139 288 339 238 204 271 224 38 130 202 296 321 277 240 173 142 81 319 295 45 44 20 26 19 345 205 199 199 200 202 206 209 215 220 228 242 248 253 263 268 276 280 281
83 149 258 255 286 204 164 166 162 133 212 228 204 266 268 152 145 183 222 248 275 86 38 350 324 338 0 305 217 214 210 210 213 216 223 232 245 261 269 278 284 274 273 274
179 27 344 333 354 330 93 185 140 109 113 228 202 251 331 335 318 248 230 177 311 299 292 10 340 231 12 30 354 251 206 216 221 220 208 205 204 212 230 253 277 300 302 285
139 159 171 211 244 232 285 248 201 174 178 215 227 307 321 339 3 343 338 277 203 229 263 331 305 298 303 344 352 350 276 248 211 205 205 199 203 216 235 255 267 274 277 290
134 202 227 266 282 285 280 281 283 210 233 227 288 307 327 337 318 303 303 318 315 310 288 275 255 271 279 287 302 303 245 233 216 203 211 222 232 246 261 274 284 290 290 290
355 248 264 273 282 290 313 321 288 336 135 230 271 236 305 297 305 307 325 311 307 261 247 241 248 268 260 248 237 251 260 243 239 239 237 242 244 252 259 269 278 285 289 292
224 140 36 276 302 304 352 348 342 307 258 240 253 298 327 311 302 305 281 281 282 268 315 317 302 289 283 274 275 257 257 256 244 235 228 224 231 242 254 267 269 271 273 273
222 111 132 272 340 285 145 238 23 297 358 52 356 336 319 292 299 301 282 273 287 295 294 282 276 282 282 278 278 282 270 244 236 228 227 228 229 235 243 251 262 266 266 267
158 142 67 174 248 281 175 2 327 326 264 27 355 337 325 317 310 296 263 256 296 303 296 291 288 280 279 279 282 277 267 252 240 231 222 224 230 235 238 242 249 252 254 260
97 132 135 145 287 248 29 326 296 288 257 11 339 331 322 323 306 296 301 292 291 279 280 288 283 278 270 267 269 266 257 253 246 241 229 227 232 233 239 244 244 244 253 256
308 341 174 207 231 281 349 306 313 68 275 325 325 306 301 296 287 294 296 287 282 283 287 287 284 275 271 268 261 257 259 253 251 244 239 236 234 238 242 240 236 240 240 245
196 182 231 190 229 289 13 348 49 259 298 304 307 305 299 295 292 290 294 298 295 288 283 281 279 272 267 262 252 253 249 251 253 250 234 226 232 243 248 234 231 236 238 242
119 185 204 171 230 259 307 247 249 277 300 301 301 301 301 300 301 306 308 305 300 296 290 284 277 271 264 259 252 249 244 243 244 237 230 234 245 239 229 229 230 230 233 232
347 46 133 25 278 314 314 348 335 320 306 303 303 308 303 309 311 302 301 297 295 292 286 283 277 269 263 254 250 242 247 240 241 240 234 234 235 229 228 229 221 221 226 227
227 353 16 263 304 325 328 335 318 315 310 305 305 304 315 306 306 303 306 303 296 293 290 283 271 265 259 254 249 242 238 232 229 230 229 229 227 227 222 223 227 227 227 225
183 187 128 247 293 241 284 299 306 305 306 307 307 316 323 321 312 312 307 302 303 302 297 289 276 258 250 243 238 238 234 222 216 222 221 217 224 228 223 225 227 230 238 239